When you browse on this site, cookies collect data to enhance your experience and personalize the content and advertising you see.
Visit our Privacy Policy to learn more. By continuing to use the site, you agree to this use of cookies and data.
  • In France
  • List of Countries
  • For 7 days
  • Water Temperature
  • Satellite Maps
  • Weather Map
  • Weather Widgets
  • user-avatar
    Login

    Hourly Weather Kalat

    Today, 17 November, Saturday

    Time Temperature Precipitation Wind Pressure Humidity
    00:00 -15°C° 0 mm 3 mps 470 mmHg 50%
    01:00 -15°C° 0 mm 3 mps 470 mmHg 45%
    02:00 -15°C° 0 mm 3 mps 469 mmHg 41%
    03:00 -15°C° 0 mm 3 mps 469 mmHg 39%
    04:00 -15°C° 0 mm 3 mps 469 mmHg 37%
    05:00 -15°C° 0 mm 3 mps 469 mmHg 34%
    06:00 -15°C° 0 mm 3 mps 470 mmHg 34%
    07:00 -14°C° 0 mm 3 mps 470 mmHg 33%
    08:00 -13°C° 0 mm 3 mps 470 mmHg 33%
    09:00 -9°C° 0 mm 2 mps 472 mmHg 33%
    10:00 -7°C° 0 mm 2 mps 473 mmHg 34%
    11:00 -3°C° 0 mm 1 mps 474 mmHg 34%
    12:00 -2°C° 0 mm 1 mps 474 mmHg 37%
    13:00 -2°C° 0 mm 1 mps 474 mmHg 40%
    14:00 -1°C° 0 mm 1 mps 474 mmHg 43%
    15:00 -3°C° 0 mm 1 mps 473 mmHg 48%
    16:00 -4°C° 0 mm 1 mps 472 mmHg 52%
    17:00 -6°C° 0 mm 1 mps 471 mmHg 57%
    18:00 -7°C° 0.1 mm 1 mps 471 mmHg 62%
    19:00 -7°C° 0.1 mm 1 mps 471 mmHg 68%
    20:00 -9°C° 0.1 mm 2 mps 471 mmHg 73%
    21:00 -9°C° 0.3 mm 2 mps 471 mmHg 76%
    22:00 -9°C° 0.3 mm 2 mps 471 mmHg 79%
    23:00 -9°C° 0.3 mm 2 mps 471 mmHg 83%

    Tomorrow, 18 November, Sunday

    Time Temperature Precipitation Wind Pressure Humidity
    00:00 -9°C° 0.3 mm 2 mps 472 mmHg 84%
    01:00 -9°C° 0.3 mm 2 mps 472 mmHg 85%
    02:00 -8°C° 0.3 mm 2 mps 472 mmHg 87%
    03:00 -9°C° 0.1 mm 2 mps 472 mmHg 87%
    04:00 -9°C° 0.1 mm 2 mps 471 mmHg 87%
    05:00 -9°C° 0.1 mm 2 mps 471 mmHg 87%
    06:00 -9°C° 0 mm 2 mps 471 mmHg 86%
    07:00 -10°C° 0 mm 2 mps 471 mmHg 85%
    08:00 -9°C° 0 mm 1 mps 471 mmHg 85%
    09:00 -7°C° 0 mm 1 mps 472 mmHg 80%
    10:00 -6°C° 0 mm 1 mps 473 mmHg 75%
    11:00 -3°C° 0 mm 1 mps 474 mmHg 70%
    12:00 -3°C° 0 mm 1 mps 474 mmHg 70%
    13:00 -5°C° 0 mm 2 mps 474 mmHg 69%
    14:00 -4°C° 0 mm 2 mps 474 mmHg 69%
    15:00 -6°C° 0 mm 2 mps 473 mmHg 73%
    16:00 -6°C° 0 mm 1 mps 472 mmHg 76%
    17:00 -8°C° 0 mm 1 mps 471 mmHg 79%
    18:00 -8°C° 0 mm 1 mps 471 mmHg 79%
    19:00 -9°C° 0 mm 1 mps 471 mmHg 79%
    20:00 -12°C° 0 mm 2 mps 470 mmHg 78%
    21:00 -12°C° 0 mm 2 mps 470 mmHg 77%
    22:00 -12°C° 0 mm 2 mps 470 mmHg 76%
    23:00 -13°C° 0 mm 2 mps 470 mmHg 74%

    Day after tomorrow, 19 November, Monday

    Time Temperature Precipitation Wind Pressure Humidity
    00:00 -13°C° 0 mm 2 mps 470 mmHg 73%
    01:00 -13°C° 0 mm 2 mps 470 mmHg 73%
    02:00 -13°C° 0 mm 2 mps 470 mmHg 72%
    03:00 -13°C° 0 mm 2 mps 470 mmHg 72%
    04:00 -14°C° 0 mm 2 mps 470 mmHg 71%
    05:00 -14°C° 0 mm 2 mps 469 mmHg 71%
    06:00 -13°C° 0 mm 2 mps 470 mmHg 71%
    07:00 -13°C° 0 mm 2 mps 470 mmHg 70%
    08:00 -13°C° 0 mm 2 mps 471 mmHg 69%
    09:00 -10°C° 0 mm 2 mps 472 mmHg 66%
    10:00 -8°C° 0 mm 2 mps 474 mmHg 63%
    11:00 -6°C° 0 mm 2 mps 475 mmHg 60%
    12:00 -6°C° 0 mm 2 mps 475 mmHg 59%
    13:00 -5°C° 0 mm 2 mps 475 mmHg 58%
    14:00 -5°C° 0 mm 2 mps 475 mmHg 57%
    15:00 -6°C° 0 mm 2 mps 474 mmHg 60%
    16:00 -8°C° 0 mm 2 mps 473 mmHg 64%
    17:00 -9°C° 0 mm 1 mps 471 mmHg 67%
    18:00 -10°C° 0 mm 2 mps 471 mmHg 69%
    19:00 -12°C° 0 mm 2 mps 471 mmHg 70%
    20:00 -14°C° 0 mm 3 mps 471 mmHg 71%
    21:00 -14°C° 0 mm 3 mps 471 mmHg 71%
    22:00 -14°C° 0 mm 3 mps 471 mmHg 70%
    23:00 -14°C° 0 mm 3 mps 471 mmHg 70%

    20 November, Tuesday

    Time Temperature Precipitation Wind Pressure Humidity
    00:00 -15°C° 0 mm 3 mps 471 mmHg 69%
    01:00 -15°C° 0 mm 3 mps 471 mmHg 68%
    02:00 -15°C° 0 mm 3 mps 471 mmHg 67%
    03:00 -15°C° 0 mm 3 mps 470 mmHg 65%
    04:00 -15°C° 0 mm 3 mps 470 mmHg 64%
    05:00 -15°C° 0 mm 3 mps 470 mmHg 62%
    06:00 -15°C° 0 mm 3 mps 471 mmHg 59%
    07:00 -14°C° 0 mm 3 mps 471 mmHg 56%
    08:00 -14°C° 0 mm 3 mps 472 mmHg 54%
    09:00 -10°C° 0 mm 2 mps 473 mmHg 52%
    10:00 -8°C° 0 mm 2 mps 475 mmHg 49%
    11:00 -5°C° 0 mm 2 mps 476 mmHg 47%
    12:00 -5°C° 0 mm 2 mps 476 mmHg 49%
    13:00 -5°C° 0 mm 2 mps 476 mmHg 50%
    14:00 -5°C° 0 mm 2 mps 476 mmHg 51%
    15:00 -6°C° 0 mm 2 mps 475 mmHg 55%
    16:00 -7°C° 0 mm 1 mps 473 mmHg 58%
    17:00 -8°C° 0 mm 1 mps 472 mmHg 61%
    18:00 -10°C° 0 mm 2 mps 472 mmHg 61%
    19:00 -12°C° 0 mm 2 mps 472 mmHg 61%
    20:00 -13°C° 0 mm 2 mps 472 mmHg 61%
    21:00 -13°C° 0 mm 2 mps 472 mmHg 59%
    22:00 -14°C° 0 mm 2 mps 471 mmHg 58%
    23:00 -14°C° 0 mm 2 mps 471 mmHg 56%

    21 November, Wednesday

    Time Temperature Precipitation Wind Pressure Humidity
    00:00 -15°C° 0 mm 3 mps 471 mmHg 56%
    01:00 -15°C° 0 mm 3 mps 471 mmHg 55%
    02:00 -16°C° 0 mm 3 mps 471 mmHg 54%
    03:00 -16°C° 0 mm 3 mps 471 mmHg 53%
    04:00 -16°C° 0 mm 3 mps 470 mmHg 53%
    05:00 -16°C° 0 mm 3 mps 470 mmHg 52%
    06:00 -16°C° 0 mm 3 mps 471 mmHg 51%
    07:00 -16°C° 0 mm 3 mps 471 mmHg 51%
    08:00 -16°C° 0 mm 3 mps 471 mmHg 51%
    09:00 -12°C° 0 mm 2 mps 473 mmHg 48%
    10:00 -9°C° 0 mm 2 mps 474 mmHg 46%
    11:00 -6°C° 0 mm 1 mps 475 mmHg 43%
    12:00 -6°C° 0 mm 1 mps 475 mmHg 41%
    13:00 -4°C° 0 mm 1 mps 475 mmHg 39%
    14:00 -3°C° 0 mm 1 mps 475 mmHg 38%
    15:00 -6°C° 0 mm 1 mps 473 mmHg 39%
    16:00 -8°C° 0 mm 1 mps 472 mmHg 40%
    17:00 -10°C° 0 mm 1 mps 470 mmHg 41%
    18:00 -12°C° 0 mm 2 mps 470 mmHg 40%
    19:00 -12°C° 0 mm 2 mps 470 mmHg 38%
    20:00 -13°C° 0 mm 3 mps 471 mmHg 36%
    21:00 -13°C° 0 mm 3 mps 471 mmHg 37%
    22:00 -13°C° 0 mm 3 mps 471 mmHg 38%
    23:00 -12°C° 0 mm 3 mps 471 mmHg 39%

    22 November, Thursday

    Time Temperature Precipitation Wind Pressure Humidity
    00:00 -12°C° 0 mm 3 mps 471 mmHg 42%
    01:00 -12°C° 0 mm 3 mps 471 mmHg 46%
    02:00 -12°C° 0 mm 3 mps 471 mmHg 49%
    03:00 -12°C° 0.1 mm 3 mps 471 mmHg 54%
    04:00 -12°C° 0.1 mm 3 mps 471 mmHg 58%
    05:00 -12°C° 0.1 mm 3 mps 471 mmHg 63%
    06:00 -12°C° 0.2 mm 3 mps 471 mmHg 67%
    07:00 -10°C° 0.2 mm 3 mps 472 mmHg 72%
    08:00 -10°C° 0.2 mm 3 mps 472 mmHg 76%
    09:00 -10°C° 0.2 mm 4 mps 473 mmHg 75%
    10:00 -9°C° 0.2 mm 4 mps 473 mmHg 75%
    11:00 -8°C° 0.2 mm 4 mps 474 mmHg 74%
    12:00 -8°C° 0.2 mm 4 mps 474 mmHg 74%
    13:00 -7°C° 0.2 mm 3 mps 473 mmHg 74%
    14:00 -7°C° 0.2 mm 3 mps 473 mmHg 73%
    15:00 -7°C° 0.2 mm 3 mps 473 mmHg 76%
    16:00 -8°C° 0.2 mm 3 mps 472 mmHg 79%
    17:00 -8°C° 0.2 mm 2 mps 472 mmHg 82%
    18:00 -8°C° 0.2 mm 2 mps 472 mmHg 82%
    19:00 -9°C° 0.2 mm 3 mps 472 mmHg 83%
    20:00 -9°C° 0.2 mm 3 mps 472 mmHg 83%
    21:00 -10°C° 0.2 mm 3 mps 472 mmHg 83%
    22:00 -10°C° 0.2 mm 3 mps 472 mmHg 84%
    23:00 -10°C° 0.2 mm 3 mps 472 mmHg 84%
    Show more